This is the latest recevied weather packets stored in our database for station/object KB4MOX. If no packets are shown the sender has not sent any weather packets the latest 10 day(s).
| Time | Temp. | Humidity | Pressure | Rain* | Wind** | Luminosity | Snow |
|---|---|---|---|---|---|---|---|
| 1777760538 | 19.44° C | 71% | 1011.3 hPa | 0 mm | - | 113 W/m² | - |
| 1777760234 | 19.44° C | 72% | 1011.3 hPa | 0 mm | - | 25 W/m² | - |
| 1777759931 | 20° C | 70% | 1011.1 hPa | 0 mm | - | 13 W/m² | - |
| 1777759627 | 20.56° C | 68% | 1011.1 hPa | 0 mm | - | 22 W/m² | - |
| 1777759323 | 21.67° C | 63% | 1011.2 hPa | 0 mm | - | 44 W/m² | - |
| 1777759020 | 22.22° C | 62% | 1011 hPa | 0 mm | - | 233 W/m² | - |
| 1777758717 | 21.67° C | 63% | 1011 hPa | 0 mm | - | 373 W/m² | - |
| 1777758415 | 21.67° C | 61% | 1011.2 hPa | 0 mm | - | 387 W/m² | - |
| 1777758111 | 21.67° C | 63% | 1010.9 hPa | 0 mm | - | 407 W/m² | - |
| 1777757808 | 21.11° C | 60% | 1010.9 hPa | 0 mm | - | 427 W/m² | - |
| 1777757506 | 21.11° C | 63% | 1010.9 hPa | 0 mm | - | 256 W/m² | - |
| 1777757204 | 20.56° C | 66% | 1011 hPa | 0 mm | - | 405 W/m² | - |
| 1777756902 | 20.56° C | 70% | 1011 hPa | 0 mm | - | 440 W/m² | - |
| 1777756597 | 20° C | 67% | 1011 hPa | 0 mm | - | 369 W/m² | - |
| 1777756295 | 20.56° C | 65% | 1010.9 hPa | 0 mm | - | 108 W/m² | - |
| 1777755992 | 20.56° C | 66% | 1011 hPa | 0 mm | - | 49 W/m² | - |
| 1777755689 | 21.11° C | 63% | 1010.8 hPa | 0 mm | - | 46 W/m² | - |
| 1777755386 | 21.67° C | 63% | 1011.1 hPa | 0 mm | - | 91 W/m² | - |
| 1777755083 | 21.11° C | 63% | 1010.8 hPa | 0 mm | - | 141 W/m² | - |
| 1777754780 | 20.56° C | 62% | 1011 hPa | 0 mm | - | 611 W/m² | - |
| 1777754477 | 20.56° C | 61% | 1011 hPa | 0 mm | - | 200 W/m² | - |
| 1777754174 | 20° C | 65% | 1010.9 hPa | 0 mm | - | 254 W/m² | - |
| 1777753872 | 20° C | 65% | 1011 hPa | 0 mm | - | 149 W/m² | - |
| 1777753567 | 19.44° C | 65% | 1011.1 hPa | 0 mm | - | 138 W/m² | - |
| 1777753266 | 19.44° C | 66% | 1011 hPa | 0 mm | - | 135 W/m² | - |
* Rain latest hour (hover to see other rain measurements)
** Current wind speed in m/s (hover to see current wind gust speed)